Flag for U.S.A. Weather past 2 weeks in San Antonio, Texas, U.S.A.

Now
65 °F

Clear.


Feels Like: 65 °F
Forecast: 63 / 86 °F
Wind: No wind

Location: San Antonio International Airport

Current Time: Oct 25, 2014 at 5:00:48 AM

Latest Report: Oct 25, 2014 at 3:51 AM


Visibility: 10 mi

Pressure: 30.10 "Hg

Humidity: 78%

Dew point: 58 °F

Location of San AntonioLocation

Historic Weather in San Antonio — Graph

°F

San Antonio temperature yesterday

Maximum temperature yesterday: 87 °F (at 4:51 PM)
Minimum temperature yesterday: 62 °F (at 4:51 AM)
Average temperature yesterday: 73 °F

Past Weeks' High & Low Weather Summary

 TemperatureHumidityPressure
High93 °F (Oct 10, 3:51 PM)93% (Oct 11, 8:59 AM)30.16 "Hg (Oct 11, 8:59 AM)
Low51 °F (Oct 14, 4:51 AM)14% (Oct 15, 2:51 PM)29.67 "Hg (Oct 13, 4:51 AM)
Average73 °F60%29.97 "Hg
* Reported Oct 10 3:51 AM — Oct 25 3:51 AM, San Antonio, Weather by CustomWeather, © 2014

Note: Actual official high and low records may vary slightly from our data, if they occured in-between our weather recording intervals... More about our weather records

Advertising

San Antonio weather history for previous 24 hours

 ConditionsComfort  
Time TempWeatherWind HumidityBarometerVisibility
3:51 AM
Oct 25
65 °FClear.No wind78%30.10 "Hg10 mi
2:51 AM70 °FClear.3 mph68%30.11 "Hg10 mi
1:51 AM70 °FClear.5 mph68%30.11 "Hg10 mi
12:51 AM70 °FClear.3 mph64%30.11 "Hg10 mi
11:51 PM
Oct 24
70 °FClear.5 mph66%30.11 "Hg10 mi
10:51 PM72 °FClear.No wind61%30.10 "Hg10 mi
9:51 PM74 °FClear.3 mph60%30.09 "Hg10 mi
8:51 PM75 °FClear.5 mph58%30.07 "Hg10 mi
7:51 PM76 °FPassing clouds.8 mph52%30.06 "Hg10 mi
6:51 PM80 °FPassing clouds.6 mph45%30.04 "Hg10 mi
5:51 PM84 °FPassing clouds.5 mph40%30.03 "Hg10 mi
4:51 PM87 °FPassing clouds.8 mph36%30.03 "Hg10 mi
3:51 PM85 °FPassing clouds.3 mph40%30.04 "Hg10 mi
2:51 PM85 °FPassing clouds.5 mph40%30.06 "Hg10 mi
1:51 PM84 °FPassing clouds.3 mph41%30.09 "Hg10 mi
12:51 PM82 °FSunny.3 mph44%30.12 "Hg10 mi
11:51 AM79 °FSunny.No wind50%30.14 "Hg10 mi
10:51 AM76 °FSunny.5 mph58%30.15 "Hg10 mi
9:51 AM72 °FSunny.No wind66%30.14 "Hg10 mi
8:51 AM66 °FSunny.No wind75%30.12 "Hg10 mi
7:51 AM62 °FClear.No wind83%30.11 "Hg10 mi
6:51 AM62 °FClear.3 mph83%30.09 "Hg10 mi
5:51 AM62 °FClear.No wind83%30.08 "Hg10 mi
Weather by CustomWeather, © 2014

See weather overviewHow to use our weather pages